Radiation Dose measured at exhaust stack monitor of Fukushima Daiichi Nuclear Power Station
Date,Time,Unit 5 6 shared exhaust cylinders,Wind Direction,Wind Velocity(m/s)
2021/07/04,00:00,3.9,north-northeast,3.3
2021/07/04,00:10,3.8,north-northeast,3.5
2021/07/04,00:20,3.7,north-northeast,3.8
2021/07/04,00:30,3.8,north-northeast,4.5
2021/07/04,00:40,3.8,north-northeast,4.9
2021/07/04,00:50,3.8,north-northeast,4.8
2021/07/04,01:00,3.9,north-northeast,4.2
2021/07/04,01:10,4.0,north-northeast,3.2
2021/07/04,01:20,3.9,north-northeast,3.7
2021/07/04,01:30,4.0,north-northeast,3.4
2021/07/04,01:40,3.9,north-northeast,4.0
2021/07/04,01:50,3.8,north-northeast,3.8
2021/07/04,02:00,3.8,north-northeast,3.7
2021/07/04,02:10,3.9,north-northeast,3.7
2021/07/04,02:20,4.0,north-northeast,3.0
2021/07/04,02:30,3.8,north-northeast,2.3
2021/07/04,02:40,3.9,north-northwest,1.5
2021/07/04,02:50,3.8,north,2.0
2021/07/04,03:00,3.9,north-northwest,2.3
2021/07/04,03:10,3.8,north-northwest,2.0
2021/07/04,03:20,4.1,north,3.1
2021/07/04,03:30,4.1,north,4.2
2021/07/04,03:40,3.8,north,4.0
2021/07/04,03:50,3.8,north-northwest,3.3
2021/07/04,04:00,3.8,north-northwest,3.0
2021/07/04,04:10,3.8,north-northwest,3.1
2021/07/04,04:20,3.7,north-northwest,2.5
2021/07/04,04:30,3.8,north,2.6
2021/07/04,04:40,3.9,north,4.3
2021/07/04,04:50,3.8,north,3.9
2021/07/04,05:00,3.9,north,3.3
2021/07/04,05:10,3.8,northwest,2.3
2021/07/04,05:20,3.7,north,3.8
2021/07/04,05:30,3.9,north,4.0
2021/07/04,05:40,3.8,north,2.6
2021/07/04,05:50,3.8,north-northwest,2.0
2021/07/04,06:00,4.0,north-northwest,2.6
2021/07/04,06:10,3.9,north-northwest,1.5
2021/07/04,06:20,3.8,north,1.7
2021/07/04,06:30,4.0,north-northwest,2.2
2021/07/04,06:40,3.9,north-northwest,2.3
2021/07/04,06:50,3.8,north,2.6
2021/07/04,07:00,3.8,north-northeast,3.0
2021/07/04,07:10,3.8,north-northwest,3.7
2021/07/04,07:20,4.0,north,2.8
2021/07/04,07:30,3.9,north-northeast,3.4
2021/07/04,07:40,3.8,north-northeast,2.8
2021/07/04,07:50,3.9,north-northeast,2.0
2021/07/04,08:00,3.9,north-northeast,2.3
2021/07/04,08:10,3.8,north-northeast,2.6
2021/07/04,08:20,3.8,north-northeast,2.3
2021/07/04,08:30,3.8,north-northeast,1.9
2021/07/04,08:40,3.9,north-northeast,1.7
2021/07/04,08:50,3.9,north,1.4
2021/07/04,09:00,3.9,north-northeast,1.4
2021/07/04,09:10,3.8,northeast,2.3
2021/07/04,09:20,3.7,north-northeast,2.3
2021/07/04,09:30,4.0,north-northeast,2.0
2021/07/04,09:40,3.8,northeast,1.2
2021/07/04,09:50,4.0,north-northeast,1.2
2021/07/04,10:00,3.8,east-northeast,1.2
2021/07/04,10:10,3.7,north-northeast,1.1
2021/07/04,10:20,3.9,northeast,0.9
2021/07/04,10:30,3.9,northeast,1.9
2021/07/04,10:40,3.9,north-northeast,1.7
2021/07/04,10:50,3.8,northeast,2.6
2021/07/04,11:00,3.8,north-northeast,2.6
2021/07/04,11:10,3.9,northeast,2.5
2021/07/04,11:20,3.9,east-northeast,2.3
2021/07/04,11:30,3.8,east-northeast,2.3
2021/07/04,11:40,3.9,east-northeast,1.7
2021/07/04,11:50,4.0,-,CALM
2021/07/04,12:00,3.9,northeast,1.7
2021/07/04,12:10,3.9,east-southeast,1.2
2021/07/04,12:20,3.8,east,1.5
2021/07/04,12:30,4.0,east,2.0
2021/07/04,12:40,3.8,east-southeast,2.2
2021/07/04,12:50,3.8,southeast,2.3
2021/07/04,13:00,4.0,southeast,2.3
2021/07/04,13:10,3.8,southeast,2.3
2021/07/04,13:20,3.9,southeast,2.0
2021/07/04,13:30,3.9,southeast,2.2
2021/07/04,13:40,4.0,southeast,2.9
2021/07/04,13:50,4.0,southeast,2.0
2021/07/04,14:00,3.8,southeast,2.3
2021/07/04,14:10,3.7,southeast,2.2
2021/07/04,14:20,3.8,southeast,1.7
2021/07/04,14:30,3.8,east-southeast,1.9
2021/07/04,14:40,3.8,southeast,2.3
2021/07/04,14:50,3.8,southeast,2.0
2021/07/04,15:00,3.9,south-southeast,1.7
2021/07/04,15:10,3.9,southeast,2.0
2021/07/04,15:20,4.0,southeast,2.5
2021/07/04,15:30,3.8,southeast,1.9
2021/07/04,15:40,3.8,east-southeast,1.4
2021/07/04,15:50,3.9,southeast,1.7
2021/07/04,16:00,3.8,southeast,1.9
2021/07/04,16:10,3.8,southeast,2.2
2021/07/04,16:20,3.7,southeast,2.0
2021/07/04,16:30,3.6,east-southeast,2.0
2021/07/04,16:40,3.9,southeast,2.6
2021/07/04,16:50,4.1,southeast,2.0
2021/07/04,17:00,3.8,south-southeast,2.0
2021/07/04,17:10,3.9,southeast,1.5
2021/07/04,17:20,3.7,south-southeast,1.7
2021/07/04,17:30,4.0,south,1.9
2021/07/04,17:40,3.8,south-southeast,1.5
2021/07/04,17:50,3.9,southeast,2.0
2021/07/04,18:00,3.8,southeast,2.9
2021/07/04,18:10,3.9,east-southeast,4.0
2021/07/04,18:20,3.9,east-southeast,1.7
2021/07/04,18:30,4.0,east-southeast,2.3
2021/07/04,18:40,3.7,southeast,1.9
2021/07/04,18:50,3.8,southeast,2.0
2021/07/04,19:00,3.8,southeast,2.3
2021/07/04,19:10,3.8,southeast,3.3
2021/07/04,19:20,4.0,southeast,3.1
2021/07/04,19:30,3.9,southeast,3.6
2021/07/04,19:40,4.0,southeast,3.9
2021/07/04,19:50,3.9,southeast,3.6
2021/07/04,20:00,3.6,southeast,3.9
2021/07/04,20:10,3.8,southeast,3.6
2021/07/04,20:20,3.9,south-southeast,3.6
2021/07/04,20:30,3.9,south-southeast,3.3
2021/07/04,20:40,3.9,south-southeast,3.8
2021/07/04,20:50,3.8,south-southeast,4.5
2021/07/04,21:00,3.9,south-southeast,3.9
2021/07/04,21:10,3.8,south-southeast,4.8
2021/07/04,21:20,4.0,south-southeast,4.5
2021/07/04,21:30,3.8,south-southeast,4.3
2021/07/04,21:40,3.7,south-southeast,4.7
2021/07/04,21:50,3.9,south,4.5
2021/07/04,22:00,3.9,south,5.0
2021/07/04,22:10,3.9,south,5.1
2021/07/04,22:20,3.8,south,4.9
2021/07/04,22:30,4.0,south,5.3
2021/07/04,22:40,3.9,south,5.3
2021/07/04,22:50,3.9,south,4.7
2021/07/04,23:00,3.8,south,5.0
2021/07/04,23:10,3.9,south,4.9
2021/07/04,23:20,3.7,south,3.8
2021/07/04,23:30,3.8,south,5.7
2021/07/04,23:40,4.1,south,5.7
2021/07/04,23:50,3.8,-,CALM
